Stündliche Wetter Vasilkovka

Heute, 29 September, Dienstag

Zeit Temperatur Niederschläge Wind Luftdruck Luftfeuchtigkeit
00:00 +18°C° 0 mm 4 m/S 755 mmHg 45%
01:00 +17°C° 0 mm 4 m/S 755 mmHg 45%
02:00 +17°C° 0 mm 4 m/S 755 mmHg 45%
03:00 +15°C° 0 mm 5 m/S 755 mmHg 47%
04:00 +15°C° 0 mm 5 m/S 754 mmHg 49%
05:00 +15°C° 0 mm 6 m/S 754 mmHg 51%
06:00 +15°C° 0 mm 6 m/S 754 mmHg 51%
07:00 +15°C° 0 mm 6 m/S 754 mmHg 51%
08:00 +16°C° 0 mm 7 m/S 754 mmHg 52%
09:00 +17°C° 0 mm 7 m/S 754 mmHg 50%
10:00 +20°C° 0 mm 7 m/S 753 mmHg 48%
11:00 +21°C° 0 mm 7 m/S 753 mmHg 46%
12:00 +21°C° 0.2 mm 7 m/S 753 mmHg 46%
13:00 +22°C° 0.2 mm 7 m/S 752 mmHg 46%
14:00 +23°C° 0.2 mm 7 m/S 752 mmHg 46%
15:00 +21°C° 0.6 mm 6 m/S 751 mmHg 51%
16:00 +20°C° 0.6 mm 5 m/S 751 mmHg 55%
17:00 +17°C° 0.6 mm 5 m/S 751 mmHg 60%
18:00 +19°C° 0.2 mm 5 m/S 750 mmHg 53%
19:00 +19°C° 0.2 mm 6 m/S 750 mmHg 46%
20:00 +20°C° 0.2 mm 6 m/S 750 mmHg 39%
21:00 +20°C° 0 mm 6 m/S 749 mmHg 39%
22:00 +18°C° 0 mm 7 m/S 749 mmHg 39%
23:00 +18°C° 0 mm 7 m/S 748 mmHg 39%

Morgen, 30 September, Mittwoch

Zeit Temperatur Niederschläge Wind Luftdruck Luftfeuchtigkeit
00:00 +18°C° 0 mm 7 m/S 748 mmHg 40%
01:00 +17°C° 0 mm 7 m/S 748 mmHg 42%
02:00 +17°C° 0 mm 7 m/S 748 mmHg 43%
03:00 +16°C° 0 mm 8 m/S 747 mmHg 44%
04:00 +16°C° 0 mm 8 m/S 747 mmHg 45%
05:00 +15°C° 0 mm 8 m/S 747 mmHg 46%
06:00 +15°C° 0 mm 8 m/S 747 mmHg 47%
07:00 +15°C° 0 mm 8 m/S 747 mmHg 47%
08:00 +15°C° 0 mm 9 m/S 747 mmHg 48%
09:00 +16°C° 0.1 mm 9 m/S 747 mmHg 47%
10:00 +17°C° 0.1 mm 9 m/S 747 mmHg 45%
11:00 +18°C° 0.1 mm 9 m/S 747 mmHg 44%
12:00 +17°C° 1 mm 8 m/S 747 mmHg 54%
13:00 +16°C° 1 mm 8 m/S 747 mmHg 63%
14:00 +13°C° 1 mm 8 m/S 746 mmHg 73%
15:00 +14°C° 2.2 mm 7 m/S 746 mmHg 74%
16:00 +14°C° 2.2 mm 6 m/S 746 mmHg 74%
17:00 +14°C° 2.2 mm 5 m/S 746 mmHg 75%
18:00 +15°C° 1.2 mm 6 m/S 746 mmHg 69%
19:00 +15°C° 1.2 mm 6 m/S 746 mmHg 64%
20:00 +16°C° 1.2 mm 6 m/S 747 mmHg 58%
21:00 +16°C° 0 mm 6 m/S 747 mmHg 58%
22:00 +16°C° 0 mm 6 m/S 747 mmHg 58%
23:00 +17°C° 0 mm 6 m/S 747 mmHg 58%

übermorgen, 1 Oktober, Donnerstag

Zeit Temperatur Niederschläge Wind Luftdruck Luftfeuchtigkeit
00:00 +16°C° 0 mm 6 m/S 748 mmHg 59%
01:00 +15°C° 0 mm 6 m/S 748 mmHg 60%
02:00 +15°C° 0 mm 6 m/S 748 mmHg 61%
03:00 +14°C° 0 mm 6 m/S 748 mmHg 61%
04:00 +14°C° 0 mm 6 m/S 749 mmHg 61%
05:00 +13°C° 0 mm 6 m/S 749 mmHg 61%
06:00 +14°C° 0 mm 6 m/S 749 mmHg 60%
07:00 +15°C° 0 mm 7 m/S 749 mmHg 59%
08:00 +15°C° 0 mm 7 m/S 750 mmHg 58%
09:00 +16°C° 0 mm 7 m/S 750 mmHg 56%
10:00 +17°C° 0 mm 7 m/S 750 mmHg 53%
11:00 +18°C° 0 mm 8 m/S 750 mmHg 50%
12:00 +20°C° 0 mm 8 m/S 750 mmHg 48%
13:00 +20°C° 0 mm 8 m/S 750 mmHg 46%
14:00 +21°C° 0 mm 8 m/S 750 mmHg 44%
15:00 +20°C° 0 mm 7 m/S 750 mmHg 48%
16:00 +19°C° 0 mm 6 m/S 750 mmHg 52%
17:00 +17°C° 0 mm 6 m/S 750 mmHg 56%
18:00 +17°C° 0 mm 5 m/S 750 mmHg 54%
19:00 +17°C° 0 mm 5 m/S 750 mmHg 52%
20:00 +17°C° 0 mm 5 m/S 750 mmHg 49%
21:00 +17°C° 0 mm 5 m/S 750 mmHg 49%
22:00 +17°C° 0 mm 5 m/S 750 mmHg 49%
23:00 +17°C° 0 mm 5 m/S 750 mmHg 49%

2 Oktober, Freitag

Zeit Temperatur Niederschläge Wind Luftdruck Luftfeuchtigkeit
00:00 +16°C° 0 mm 6 m/S 750 mmHg 50%
01:00 +16°C° 0 mm 6 m/S 750 mmHg 51%
02:00 +15°C° 0 mm 6 m/S 750 mmHg 52%
03:00 +15°C° 0.1 mm 6 m/S 750 mmHg 55%
04:00 +14°C° 0.1 mm 6 m/S 751 mmHg 58%
05:00 +14°C° 0.1 mm 6 m/S 751 mmHg 61%
06:00 +14°C° 0 mm 6 m/S 751 mmHg 60%
07:00 +14°C° 0 mm 6 m/S 751 mmHg 58%
08:00 +15°C° 0 mm 6 m/S 751 mmHg 57%
09:00 +15°C° 0.4 mm 6 m/S 751 mmHg 61%
10:00 +15°C° 0.4 mm 6 m/S 751 mmHg 64%
11:00 +14°C° 0.4 mm 5 m/S 751 mmHg 68%
12:00 +14°C° 0.9 mm 4 m/S 751 mmHg 69%
13:00 +14°C° 0.9 mm 3 m/S 751 mmHg 70%
14:00 +15°C° 0.9 mm 1 m/S 751 mmHg 72%
15:00 +15°C° 1.2 mm 2 m/S 751 mmHg 78%
16:00 +14°C° 1.2 mm 2 m/S 751 mmHg 84%
17:00 +13°C° 1.2 mm 3 m/S 751 mmHg 90%
18:00 +13°C° 0.6 mm 3 m/S 752 mmHg 90%
19:00 +14°C° 0.6 mm 2 m/S 752 mmHg 90%
20:00 +14°C° 0.6 mm 2 m/S 752 mmHg 91%
21:00 +14°C° 0.6 mm 2 m/S 752 mmHg 91%
22:00 +14°C° 0.6 mm 2 m/S 753 mmHg 91%
23:00 +15°C° 0.6 mm 2 m/S 753 mmHg 91%

3 Oktober, Samstag

Zeit Temperatur Niederschläge Wind Luftdruck Luftfeuchtigkeit
00:00 +15°C° 0.1 mm 2 m/S 753 mmHg 90%
01:00 +14°C° 0.1 mm 2 m/S 753 mmHg 90%
02:00 +14°C° 0.1 mm 2 m/S 753 mmHg 89%
03:00 +14°C° 0 mm 1 m/S 753 mmHg 88%
04:00 +14°C° 0 mm 1 m/S 753 mmHg 88%
05:00 +13°C° 0 mm 1 m/S 753 mmHg 87%
06:00 +14°C° 0 mm 1 m/S 754 mmHg 84%
07:00 +15°C° 0 mm 1 m/S 754 mmHg 80%
08:00 +16°C° 0 mm 1 m/S 754 mmHg 77%
09:00 +18°C° 0 mm 1 m/S 754 mmHg 72%
10:00 +20°C° 0 mm 1 m/S 754 mmHg 66%
11:00 +20°C° 0 mm 2 m/S 754 mmHg 61%
12:00 +21°C° 0 mm 1 m/S 754 mmHg 59%
13:00 +22°C° 0 mm 1 m/S 754 mmHg 56%
14:00 +20°C° 0 mm 0 m/S 754 mmHg 54%
15:00 +22°C° 0.1 mm 1 m/S 754 mmHg 57%
16:00 +21°C° 0.1 mm 1 m/S 754 mmHg 59%
17:00 +20°C° 0.1 mm 1 m/S 754 mmHg 62%
18:00 +18°C° 0 mm 2 m/S 754 mmHg 62%
19:00 +17°C° 0 mm 2 m/S 755 mmHg 62%
20:00 +16°C° 0 mm 3 m/S 755 mmHg 62%
21:00 +16°C° 0 mm 3 m/S 755 mmHg 61%
22:00 +15°C° 0 mm 2 m/S 755 mmHg 60%
23:00 +15°C° 0 mm 2 m/S 755 mmHg 60%

4 Oktober, Sonntag

Zeit Temperatur Niederschläge Wind Luftdruck Luftfeuchtigkeit
00:00 +15°C° 0 mm 2 m/S 755 mmHg 60%
01:00 +15°C° 0 mm 2 m/S 755 mmHg 61%
02:00 +15°C° 0 mm 2 m/S 755 mmHg 61%
03:00 +14°C° 0 mm 2 m/S 755 mmHg 61%
04:00 +14°C° 0 mm 2 m/S 755 mmHg 61%
05:00 +14°C° 0 mm 2 m/S 755 mmHg 61%
06:00 +15°C° 0 mm 2 m/S 755 mmHg 58%
07:00 +16°C° 0 mm 2 m/S 755 mmHg 54%
08:00 +17°C° 0 mm 2 m/S 755 mmHg 51%
09:00 +19°C° 0 mm 1 m/S 755 mmHg 49%
10:00 +21°C° 0 mm 1 m/S 755 mmHg 46%
11:00 +22°C° 0 mm 1 m/S 755 mmHg 44%
12:00 +23°C° 0 mm 1 m/S 755 mmHg 43%
13:00 +23°C° 0 mm 1 m/S 755 mmHg 42%
14:00 +24°C° 0 mm 1 m/S 755 mmHg 41%
15:00 +23°C° 0 mm 1 m/S 755 mmHg 43%
16:00 +21°C° 0 mm 2 m/S 755 mmHg 46%
17:00 +20°C° 0 mm 2 m/S 755 mmHg 49%
18:00 +20°C° 0 mm 2 m/S 755 mmHg 48%
19:00 +19°C° 0 mm 3 m/S 755 mmHg 48%
20:00 +19°C° 0 mm 3 m/S 756 mmHg 48%
21:00 +19°C° 0 mm 3 m/S 756 mmHg 50%
22:00 +18°C° 0 mm 4 m/S 756 mmHg 52%
23:00 +18°C° 0 mm 4 m/S 756 mmHg 55%
Mehr zeigen